Preview of NWS' New Version of Forecast
This preview is not operational and should not be used for support decisions.

Regional Weather Roundup (RWR)

Issued by National Weather Service (NWS)

                            
000
ASUS45 KCYS 200510
RWRWY 

WYOMING REGIONAL WEATHER ROUNDUP
NATIONAL WEATHER SERVICE CHEYENNE WY
1100 PM MDT MON AUG 19 2019

NOTE:  "FAIR" INDICATES FEW OR NO CLOUDS BELOW 12,000 FEET
WITH NO SIGNIFICANT WEATHER AND/OR OBSTRUCTIONS TO VISIBILITY.

WYZ001-200600-
YELLOWSTONE NATIONAL PARK
  
CITY           SKY/WX    TMP DP  RH WIND       PRES   REMARKS
LK YELLOWSTONE   N/A     52  37  56 CALM      30.32R                  
W YELLOWSTONE  NOT AVBL                                               

$$
WYZ002>013-054>058-071-098>099-200600-
NORTHERN WYOMING
  
CITY           SKY/WX    TMP DP  RH WIND       PRES   REMARKS
JACKSON        FAIR      55  40  56 N3        30.20R                  
CODY           FAIR      70  38  31 NW7       30.07R                  
GREYBULL       FAIR      73  39  29 W6        29.93R                  
WORLAND        FAIR      75  42  30 E6        29.95R                  
SHERIDAN       FAIR      66  48  52 CALM      30.01R                  
BUFFALO        FAIR      66  44  45 W9        30.09S                  
GILLETTE       FAIR      64  45  49 CALM      30.04R                  
HULETT         FAIR      68  46  45 E5        30.05S                  
NEWCASTLE      FAIR      72  52  49 E6        30.03R                  

$$
WYZ014>020-022>026-101>103-200600-
CENTRAL WYOMING
  
CITY           SKY/WX    TMP DP  RH WIND       PRES   REMARKS
BIG PINEY      FAIR      57  26  30 N10       30.24S                  
PINEDALE       FAIR      55  32  41 NW9       30.26R                  
DUBOIS         FAIR      61  28  29 NW7       30.24R                  
LANDER         FAIR      78  21  12 SW17      30.08S                  
RIVERTON       FAIR      75  27  17 NW13      30.07R                  
CASPER         FAIR      67  28  23 W9        30.07R                  
DOUGLAS        FAIR      63  39  41 NW5       30.06R                  

$$
WYZ021-027>030-104>119-200600-
SOUTHERN WYOMING
  
CITY           SKY/WX    TMP DP  RH WIND       PRES   REMARKS
EVANSTON       FAIR      64  21  19 E7        30.26R                  
KEMMERER       FAIR      61  25  25 NW7       30.28R                  
ROCK SPRINGS   FAIR      68  21  16 SW7       30.23R                  
DIXON          FAIR      62  26  25 E17       30.24S                  
RAWLINS        FAIR      68  23  18 SW8       30.22S                  
SARATOGA       FAIR      57  28  33 SE6       30.26S                  
LARAMIE        FAIR      64  28  25 S7        30.27S                  
CHEYENNE       FAIR      71  52  50 S5        30.20R                  
TORRINGTON     FAIR      75  46  35 SE6       30.00R                  
PINE BLUFFS    FAIR      72  59  64 SE8       30.11S                  

$$